Orbital Elements at Epoch 2459200.5 (2020-Dec-17.0) TDB
Reference: JPL 19 (heliocentric ecliptic J2000)
Element | Value | Uncertainty (1-sigma) | Units |
e | .1931554102326331 | 3.9543e-08 | |
a | 2.37305479415545 | 1.3224e-08 | au |
q | 1.914686421885837 | 9.6396e-08 | au |
i | 2.006459393204245 | 4.8178e-06 | deg |
node | 55.14497468006313 | 0.00013329 | deg |
peri | 253.6198139302928 | 0.00013409 | deg |
M | 323.268005246676 | 1.8356e-05 | deg |
tp | 2459336.739201354386 (2021-May-02.23920135) | 6.8718e-05 | TDB |
period | 1335.242281747867 3.66 | 1.1161e-05 3.056e-08 | d yr |
n | .269613990600081 | 2.2536e-09 | deg/d |
Q | 2.831423166425063 | 1.5778e-08 | au |
|
| | Orbit Determination Parameters
Additional Information
|